Location: B?lacia
(46.1833°N, 22.5000°E)
Time: 12:04:24
(UTC+00:00)

Daily predictions for brighter satellites

Satellite Brightness Start Highest point End
(mag) Time Altitude Azimuth Time Altitude Azimuth Time Altitude Azimuth
Gblst 52 Del rocket 4.5 17:47:48 10° SW 17:53:29 61° SE 17:59:56 10° ENE
COSMO-SKYMED 1 4.5 17:50:59 10° N 17:54:43 35° WNW 17:58:26 10° SW
Cosmos 1025 Rocket 4.4 17:52:13 10° NNE 17:55:35 22° ENE 17:58:56 10° ESE
Cosmos 1821 Rocket 4.3 17:51:38 10° SSE 17:57:38 49° E 18:03:44 10° NNE
IRAS Rocket 4.3 17:53:02 10° SSE 17:58:26 62° ENE 18:03:51 10° N
Cosmos 1733 Rocket 3.3 17:54:32 10° SSE 17:58:44 49° E 18:03:00 10° NNE
Terra 2.8 17:54:46 10° SE 17:58:48 30° ENE 18:02:52 10° N
Cosmos 2242 Rocket 3.8 17:54:55 10° N 17:59:16 52° ENE 18:03:34 10° SSE
Meteor 2-15 4.5 17:54:07 10° S 18:00:06 65° E 18:06:09 10° NNE
Helios 1A Rocket 3.1 17:57:59 10° NE 18:00:51 29° E 18:03:40 10° SSE
CZ-4B R/B 3.9 17:57:19 10° SSE 18:00:59 55° ENE 18:04:48 10° N
Cosmos 2237 Rocket 2.3 17:55:25 10° SSW 18:01:06 90° W 18:06:52 10° NNE
Cosmos 1980 3.9 17:57:26 10° SSW 18:03:05 82° WNW 18:08:46 10° NNE
Cosmos 2218 Rocket 4.0 17:57:21 10° S 18:03:27 74° E 18:09:37 10° NNE
SJ-6B 3.7 18:00:07 10° S 18:03:37 47° W 18:07:08 10° NNW
Meteor 1-21 Rocket 4.4 17:58:21 10° NNW 18:04:04 87° W 18:09:52 10° S
Resurs 01 Rocket 3.5 18:00:31 10° SSW 18:04:27 33° W 18:08:25 10° NNW
CSL-04 Rocket 3.7 18:02:07 10° SSE 18:07:40 81° ENE 18:13:14 10° NNW
Blok-2BL 4.1 18:09:43 10° SSW 18:14:01 65° ESE 18:19:57 10° NE
USA 59 Rocket -0.2 18:14:03 10° NW 18:17:29 81° SW 18:22:05 10° SE
Cosmos 1346 Rocket 3.3 18:14:38 10° N 18:17:56 33° ENE 18:20:53 12° SE
Cosmos 1943 Rocket 3.8 18:14:44 10° NW 18:19:48 34° WSW 18:24:49 10° SSW
Cosmos 1400 Rocket 2.4 18:19:06 10° S 18:22:41 77° E 18:26:19 10° NNE
SL-4 R/B 3.5 18:20:54 10° SSE 18:23:07 15° SE 18:23:54 14° ESE
TIMED 4.4 18:19:32 10° NNW 18:23:48 89° ENE 18:28:02 10° SSE
Feng Yun 1-1 Rocket 4.2 18:18:37 10° SSE 18:24:04 71° ENE 18:29:28 10° N
ASTEX 1 4.4 18:20:30 12° SE 18:24:21 29° ENE 18:28:33 10° NNE
Meteor 1-31 Rocket 2.7 18:23:03 10° S 18:26:34 76° WSW 18:30:06 10° NNW
Cosmos 2369 Rocket 2.9 18:23:49 10° NNW 18:29:02 38° NE 18:33:13 15° ESE
Cosmos 1602 4.1 18:27:50 10° NNE 18:29:30 18° ENE 18:29:48 17° E
Cosmos 1812 0.3 18:28:43 11° S 18:30:13 84° E 18:31:54 10° N
ADEOS 3.7 18:25:55 10° SSE 18:30:59 56° ENE 18:36:06 10° N
Aureole 3 4.3 18:27:46 10° N 18:32:59 85° W 18:39:07 10° S
Cosmos 1869 4.5 18:32:16 17° ESE 18:33:24 20° E 18:36:03 10° NE
USA 234 3.4 18:27:45 10° ENE 18:34:05 50° SE 18:40:24 10° SSW
MOS 1 4.3 18:28:35 10° SSE 18:34:12 76° ENE 18:39:53 10° NNW
Cosmos 2285 Rocket 4.4 18:28:42 10° S 18:34:37 43° ESE 18:40:32 10° NNE
CBERS 1 LM4 rocket 4.3 18:30:06 10° SSE 18:34:46 70° ENE 18:39:33 10° N
SL-08 R/B 3.8 18:31:41 10° NNE 18:36:23 43° E 18:41:00 10° S
Meteor 1-11 4.5 18:34:51 10° NNW 18:40:21 70° W 18:45:48 10° S
RESURS DK-1 3.7 18:36:53 10° SW 18:40:38 41° WNW 18:44:25 10° NNE
Cosmos 2221 Rocket 4.0 18:38:06 10° N 18:42:21 45° ENE 18:45:17 18° SE
Lacrosse 5 rocket 3.4 18:41:22 10° NNW 18:42:52 13° N 18:44:21 10° NE
USA 186 2.7 18:43:56 19° ENE 18:43:56 19° ENE 18:45:39 10° NNE
Cosmos 1943 4.3 18:41:49 16° SE 18:44:39 23° ESE 18:49:01 10° NE
Cosmos 2278 Rocket 4.1 18:41:44 10° NW 18:46:23 27° WSW 18:51:00 10° SSW
CZ-4B DEB 4.4 18:41:31 10° S 18:46:58 74° WSW 18:52:29 10° NNW
CZ-4B R/B 3.2 18:41:53 10° SSE 18:47:29 82° ENE 18:53:10 10° NNW
SKYMED 3 4.2 18:43:37 10° NNE 18:47:29 62° ESE 18:51:21 10° S
Cosmos 405 Rocket 3.7 18:50:05 10° NNE 18:52:16 18° ENE 18:52:20 18° ENE
SL-8 R/B 3.6 18:48:39 10° WSW 18:53:23 82° SSE 18:58:07 10° ENE
CZ-4B R/B 4.1 18:52:52 18° E 18:53:30 19° ENE 18:55:56 10° NNE
SL-24 R/B 4.2 18:49:23 10° NNE 18:54:08 88° WNW 18:58:23 10° SSW
NOSS 2-1 (D) 4.3 18:53:31 10° NW 18:56:52 40° SW 19:00:10 15° S
Cosmos 1975 Rocket 4.4 18:54:12 10° NNE 18:57:46 23° ENE 18:58:59 21° E
ERS-1 Rocket 3.2 18:54:16 10° S 18:59:14 69° WSW 19:04:15 10° NNW
Cosmos 2292 Rocket 3.2 18:59:53 10° N 19:04:06 80° W 19:06:14 22° S
Cosmos 1674 Rocket 3.9 19:00:03 10° NNW 19:04:21 63° W 19:08:19 12° S
NOSS 2-1 (E) 4.1 19:01:40 10° NW 19:05:03 44° SW 19:07:42 20° S
BREEZE-M DEB (TANK) 2.5 19:03:01 10° WNW 19:05:15 58° NNE 19:06:42 28° E
Cosmos 2298 Rocket 3.9 19:02:38 10° SSW 19:07:55 73° ESE 19:13:13 10° NNE
Okean-O 2.6 19:07:13 27° SSE 19:09:29 67° ENE 19:13:51 10° N
Cosmos 44 3.6 19:06:18 10° SW 19:11:21 75° NW 19:16:42 10° NNE
CZ-2C R/B 4.2 19:12:52 15° NE 19:12:52 15° NE 19:14:10 10° NNE
Cosmos 1908 Rocket 3.4 19:08:44 11° S 19:12:56 89° E 19:17:16 10° N
IRS-1A Rocket 4.3 19:08:51 17° SSE 19:13:21 81° WSW 19:19:08 10° NNW
SL-08 R/B 4.4 19:08:09 10° S 19:14:16 86° E 19:20:24 10° N
Cosmos 1934 Rocket 3.9 19:10:21 10° S 19:16:32 72° E 19:22:42 10° NNE
SL-16 R/B 2.3 19:11:27 10° SSW 19:17:07 81° WNW 19:22:50 10° NNE
CZ-4B R/B 4.0 19:15:34 29° ESE 19:17:12 38° ENE 19:21:36 10° N
Okean O Rocket 1.5 19:15:51 29° SSE 19:18:03 86° ENE 19:22:23 10° NNW
Ariane Rocket 3.8 19:17:09 28° ESE 19:18:53 36° ENE 19:23:27 10° N
Geosat 3.9 19:16:45 10° NNE 19:21:47 78° ESE 19:26:46 10° SSW
Cosmos 1782 Rocket 3.5 19:21:40 37° SSE 19:23:08 57° E 19:27:21 10° NNE
CZ-4 R/B 3.7 19:20:50 10° SW 19:23:31 19° W 19:26:12 10° NW
Spot 2 Rocket 3.5 19:23:15 25° S 19:26:13 81° WSW 19:31:16 10° NNW
MOS 1-B 4.3 19:23:34 24° SSE 19:27:15 85° WSW 19:33:05 10° NNW
Cosmos 1269 Rocket 4.3 19:23:00 10° NNW 19:28:10 51° ENE 19:29:59 35° ESE
ATLAS 5 CENTAUR R/B 3.5 19:27:06 10° N 19:30:00 19° NE 19:31:56 15° ENE
USA 245 4.0 19:28:49 38° SE 19:30:37 65° ENE 19:36:06 10° N
NOSS 3-1 (C) 4.0 19:23:45 10° NW 19:30:51 86° NE 19:35:42 29° SE
Cosmos 1140 Rocket 3.6 19:26:07 10° NNW 19:31:12 58° ENE 19:32:51 39° ESE
Cosmos 1025 Rocket 4.4 19:29:13 10° NNW 19:33:06 35° W 19:36:27 13° SSW
SOZ 4.3 19:29:10 10° WNW 19:33:32 68° NNE 19:33:43 65° NE
Cosmos 967 Rocket 4.5 19:28:39 10° NW 19:35:09 85° SW 19:38:09 34° SSE
Terra 3.2 19:32:09 11° SSW 19:36:14 34° W 19:40:31 10° NNW
BREEZE-M DEB (TANK) 2.9 19:38:13 10° WNW 19:41:21 74° SSW 19:43:55 35° SE
Cosmos 2123 Rocket 4.3 19:36:34 10° NNW 19:42:48 66° W 19:47:09 21° S
Cosmos 407 Rocket 4.1 19:43:02 10° N 19:47:52 40° ENE 19:48:52 36° E
Cosmos 1862 3.5 19:45:45 10° N 19:48:48 49° NE 19:48:48 49° NE
Cosmos 1300 Rocket 3.9 19:48:13 26° SSW 19:50:29 59° WNW 19:54:45 10° N
Cosmos 1174 4.0 19:49:03 10° NNW 19:51:31 47° N 19:51:31 47° N
Cosmos 2058 3.0 19:48:36 10° N 19:52:11 53° ENE 19:52:11 53° ENE
Cosmos 371 Rocket 4.1 19:49:46 10° N 19:54:14 35° ENE 19:54:49 34° ENE
BREEZE-M DEB (TANK) 3.4 19:52:26 10° WNW 19:55:18 63° NNE 19:58:01 29° E
COSMOS 2455 3.2 19:50:25 10° NNW 19:56:20 54° NE 19:58:10 40° ESE
BREEZE-M DEB (TANK) 4.2 19:55:03 10° SW 19:59:46 88° SSE 20:20:31 10° ENE
SL-4 R/B 3.6 19:56:08 10° SW 19:57:35 22° SW 19:57:35 22° SW
Cosmos 1535 Rocket 4.4 20:00:37 29° SSW 20:03:55 83° W 20:10:08 10° N
SJ 16-02 2.6 20:00:32 10° N 20:04:02 28° NE 20:04:02 28° NE
Cosmos 1605 Rocket 3.9 20:02:58 33° S 20:05:56 85° W 20:12:08 10° N
Gbstr 26 Del rocket 3.2 20:02:07 10° SW 20:06:31 62° SSW 20:06:31 62° SSW
Cosmos 2297 4.4 20:03:16 10° NW 20:08:44 46° WSW 20:10:44 33° SSW
Cosmos 1315 Rocket 3.2 20:08:55 50° W 20:09:14 52° WNW 20:12:55 10° N
SPOT 3 Rocket 3.7 20:08:16 46° SSW 20:09:41 67° WSW 20:14:51 10° NNW
Cosmos 2369 Rocket 3.2 20:07:53 10° NW 20:13:00 37° WSW 20:14:59 28° SSW
USA 234 3.7 20:10:46 10° NE 20:17:12 62° NNW 20:23:38 10° WSW
SeaSat 1 4.1 20:17:06 21° ENE 20:18:13 22° NE 20:21:58 10° N
Cosmos 2173 Rocket 4.3 20:18:49 43° E 20:19:01 44° E 20:24:46 10° NNE
Lacrosse 5 rocket 2.8 20:17:31 10° NW 20:19:32 25° N 20:19:32 25° N
Cosmos 1603 3.6 20:26:12 66° ESE 20:26:14 66° ESE 20:31:53 10° NNE
CZ-4B R/B 4.2 20:27:35 27° W 20:27:35 27° W 20:30:06 10° NW
Cosmos 1943 3.7 20:23:23 14° SW 20:28:12 60° WNW 20:33:50 10° NNE
Cosmos 921 Rocket 3.4 20:26:02 10° NNW 20:30:06 57° W 20:30:06 57° W
NOSS 3-1 (A) 4.0 20:23:25 10° NW 20:30:37 88° SW 20:33:19 49° SE
Meteor 2-3 Rocket 4.1 20:26:12 10° N 20:31:37 48° ENE 20:31:47 48° E
Helios 1B rocket 4.1 20:35:11 21° NNE 20:35:11 21° NNE 20:36:46 10° N
Cosmos 1975 Rocket 4.2 20:31:32 10° NNW 20:35:35 36° W 20:35:59 35° WSW
SL-8 R/B 3.9 20:31:08 10° W 20:35:51 65° N 20:36:05 64° NNE
Cosmos 1356 Rocket 4.5 20:36:35 37° W 20:36:50 38° WNW 20:40:35 10° N
Cosmos 2151 Rocket 4.4 20:39:51 42° NNE 20:39:51 42° NNE 20:42:54 10° NNE
Cosmos 2100 Rocket 3.8 20:42:04 66° ESE 20:42:27 68° E 20:48:37 10° NNE
Okean 2 Rocket 4.2 20:47:18 37° NE 20:47:18 37° NE 20:50:11 10° NNE
Cosmos 1190 Rocket 4.3 20:42:15 10° NNW 20:47:18 57° NE 20:47:18 57° NE
Cosmos 304 Rocket 4.0 20:42:58 10° NNW 20:47:13 65° WNW 20:47:13 65° WNW
Helios 1A 4.4 20:44:15 10° NNE 20:46:20 29° NNE 20:46:20 29° NNE
Ariane Rocket 4.2 20:57:13 31° WSW 20:57:46 31° W 21:02:15 10° NNW
Cosmos 2360 4.3 20:54:23 10° NNW 21:00:04 64° ENE 21:00:06 64° ENE
Cosmos 1656 3.6 20:57:45 10° NNW 21:02:57 73° NNE 21:02:57 73° NNE
ATLAS 3B R/B 4.2 20:56:29 10° NNW 21:03:31 34° NNE 21:08:29 17° E
Cosmos 1864 Rocket 4.4 21:07:50 74° E 21:07:53 74° E 21:14:14 10° NNE
BREEZE-M DEB (TANK) 4.1 20:55:40 10° WSW 21:11:43 79° SSE 21:16:57 10° ENE
ATLAS 5 CENTAUR R/B 2.6 21:08:11 10° NW 21:11:03 45° NW 21:11:03 45° NW
Cosmos 1420 Rocket 4.2 21:14:16 68° NNW 21:14:16 68° NNW 21:19:04 10° NNE
Cosmos 1833 Rocket 3.9 21:19:39 30° ENE 21:19:39 30° ENE 21:22:51 10° NE
Cosmos 1954 Rocket 4.3 21:12:39 10° NNW 21:17:07 65° N 21:17:07 65° N
Cosmos 676 Rocket 4.4 21:16:14 10° NNW 21:20:45 59° NNE 21:20:45 59° NNE
Cosmos 1818 3.8 21:18:35 10° NW 21:23:15 65° NW 21:23:15 65° NW
Cosmos 1725 Rocket 3.9 21:24:14 87° E 21:24:14 87° E 21:30:34 10° N
ALOS 2 4.1 21:26:08 33° NNE 21:26:08 33° NNE 21:28:55 10° N
Cosmos 1459 Rocket 4.2 21:26:51 60° WSW 21:27:31 64° WNW 21:33:47 10° N
ARIANE 5 R/B 3.9 21:32:43 37° N 21:32:43 37° N 21:35:27 10° N
Cosmos 2233 Rocket 4.0 21:34:00 70° ENE 21:34:00 70° ENE 21:39:51 10° NNE
ATLAS 2AS CENTAUR R/B 2.9 21:38:08 56° E 21:38:08 56° E 21:43:51 10° NE
Cosmos 2056 Rocket 4.0 21:40:33 61° N 21:40:33 61° N 21:45:02 10° NNE
Cosmos 1802 Rocket 4.1 21:40:52 66° W 21:41:06 67° W 21:47:21 10° N
COSMOS 2455 4.1 21:36:49 10° NW 21:41:17 29° W 21:41:17 29° W
SJ 16-02 3.4 21:38:33 10° NW 21:40:32 22° WNW 21:40:32 22° WNW
Cosmos 2251 Rocket 4.5 21:39:23 10° NNW 21:43:27 41° WNW 21:43:27 41° WNW
CZ-2C R/B 3.9 21:47:41 31° ENE 21:47:41 31° ENE 21:52:21 10° N
SeaSat 1 3.4 21:56:42 43° NW 21:56:42 43° NW 22:00:04 10° NNW
Cosmos 2016 Rocket 4.2 21:55:13 62° W 21:55:23 62° WNW 22:01:40 10° N
ACS3 Solar Sail 3.9 21:58:31 10° ENE 22:01:13 13° E 22:01:13 13° E
Cosmos 1697 Rocket 3.0 22:00:44 10° NNW 22:05:25 62° NNW 22:05:25 62° NNW
CZ-4C R/B 4.2 22:20:44 14° ENE 22:20:44 14° ENE 22:21:37 10° ENE
Cosmos 1980 Rocket 2.7 22:21:27 10° NNW 22:26:39 55° NE 22:26:39 55° NE
Cosmos 1452 Rocket 4.2 22:41:37 51° NNE 22:41:37 51° NNE 22:45:30 10° NNE
Cosmos 1867 4.1 22:54:04 56° N 22:54:04 56° N 22:58:37 10° NNE
ATLAS 3B R/B 2.7 22:47:23 10° NW 22:55:13 87° SW 22:55:41 80° SSE
Cosmos 2333 Rocket 4.2 22:53:43 10° N 22:58:16 24° NE 23:02:06 13° E
Cosmos 1833 Rocket 3.8 23:01:17 35° WNW 23:01:35 35° NW 23:06:44 10° NNE
Cosmos 2082 Rocket 2.8 23:02:51 49° ENE 23:02:51 49° ENE 23:07:23 10° NNE
Cosmos 909 Rocket 4.3 23:03:36 55° E 23:03:36 55° E 23:09:06 10° NE
Cosmos 2322 Rocket 4.5 23:05:21 10° N 23:09:26 20° NE 23:13:32 10° E
CZ-2C R/B 3.8 23:04:48 10° N 23:09:16 50° NW 23:09:16 50° NW
Cosmos 1634 Rocket 4.5 23:16:23 48° E 23:16:35 48° E 23:22:29 10° NNE
Cosmos 1607 4.4 23:20:33 50° E 23:20:33 50° E 23:25:54 10° NE
USA 229 DEB 4.3 23:13:54 10° NW 23:20:33 51° WSW 23:20:33 51° WSW
USA 229 4.3 23:13:56 10° NW 23:20:40 52° WSW 23:20:40 52° WSW
Cosmos 1992 Rocket 4.4 23:25:21 58° NE 23:25:21 58° NE 23:29:35 10° NNE
SL-16 R/B 3.4 23:20:22 10° NNW 23:25:41 39° NE 23:27:51 28° E
CZ-2C R/B 3.7 23:29:07 35° WNW 23:29:07 35° WNW 23:32:51 10° NNW
Cosmos 44 Rocket 4.1 23:29:36 48° ENE 23:29:36 48° ENE 23:33:27 10° NE
ATLAS 2AS CENTAUR R/B 3.7 23:25:29 27° W 23:28:21 38° NW 23:34:41 10° NNE
Cosmos 1627 Rocket 4.4 23:22:43 10° N 23:29:03 83° E 23:29:11 82° ESE
Cosmos 2098 Rocket 4.3 23:36:56 46° WNW 23:36:56 46° WNW 23:41:47 10° N
Cosmos 2279 Rocket 4.3 23:43:05 51° ESE 23:43:51 55° E 23:49:56 10° NNE
Cosmos 2237 4.3 23:38:34 10° NNW 23:43:42 71° NW 23:43:42 71° NW
ACS3 Solar Sail 1.6 23:38:27 10° NNE 23:44:32 80° ESE 23:44:46 78° SE
IDEFIX/ARIANE 42P 3.4 23:41:27 10° NNE 23:46:20 41° E 23:46:20 41° E
